| time (UTC) | temp C | wind direction | speed KPH | gust KPH | rain 1hr cm | rain 24hr cm | rain mn cm | humidity % | barometer mb |
| 20260504160400 | 18 | 141 | 3.2 | 12.9 | 0.00 | 0.00 | 0.00 | 24 | 975.5 |
| 20260504150751 | 17 | 249 | 3.2 | 19.3 | 0.00 | 0.00 | 0.00 | 26 | 975.7 |
| 20260504150746 | 17 | 48 | 3.2 | 19.3 | 0.00 | 0.00 | 0.00 | 26 | 975.7 |
| 20260504150352 | 16 | 204 | 3.2 | 12.9 | 0.00 | 0.00 | 0.00 | 27 | 975.9 |
| 20260504140747 | 14 | 210 | 3.2 | 8.0 | 0.00 | 0.00 | 0.00 | 32 | 975.6 |
| 20260504140246 | 14 | 248 | 3.2 | 8.0 | 0.00 | 0.00 | 0.00 | 32 | 975.6 |
| 20260504130750 | 9 | 217 | 0.0 | 1.6 | 0.00 | 0.00 | 0.00 | 41 | 975.5 |
| 20260504130746 | 10 | 243 | 0.0 | 1.6 | 0.00 | 0.00 | 0.00 | 38 | 975.5 |
| 20260504110241 | 3 | 162 | 0.0 | 0.0 | 0.00 | 0.00 | 0.00 | 60 | 975.6 |
| 20260504100238 | 4 | 146 | 0.0 | 0.0 | 0.00 | 0.00 | 0.00 | 57 | 975.9 |
| 20260504081730 | 8 | 208 | 0.0 | 0.0 | 0.00 | 0.00 | 0.00 | 44 | 976.2 |
| 20260504081230 | 9 | 208 | 0.0 | 1.6 | 0.00 | 0.00 | 0.00 | 42 | 976.2 |
| 20260504080735 | 11 | 189 | 0.0 | 3.2 | 0.00 | 0.00 | 0.00 | 36 | 976.3 |
| 20260504080731 | 10 | 208 | 0.0 | 1.6 | 0.00 | 0.00 | 0.00 | 36 | 976.3 |
| 20260504080229 | 10 | 208 | 0.0 | 3.2 | 0.00 | 0.00 | 0.00 | 36 | 976.3 |
| 20260504070227 | 11 | 203 | 0.0 | 1.6 | 0.00 | 0.00 | 0.00 | 34 | 976.7 |
| 20260504060223 | 7 | 146 | 0.0 | 0.0 | 0.00 | 0.00 | 0.00 | 52 | 977.2 |
| 20260504050722 | 9 | 146 | 0.0 | 0.0 | 0.00 | 0.00 | 0.00 | 47 | 977.5 |
| 20260504050222 | 9 | 148 | 0.0 | 0.0 | 0.00 | 0.00 | 0.00 | 47 | 977.5 |
| 20260504045720 | 9 | 148 | 0.0 | 0.0 | 0.00 | 0.00 | 0.00 | 49 | 977.6 |
| 20260504045221 | 9 | 148 | 0.0 | 0.0 | 0.00 | 0.00 | 0.00 | 49 | 977.6 |
| 20260504044720 | 10 | 148 | 0.0 | 0.0 | 0.00 | 0.00 | 0.00 | 46 | 977.6 |
| 20260504044218 | 10 | 148 | 0.0 | 0.0 | 0.00 | 0.00 | 0.00 | 45 | 977.8 |
| 20260504043722 | 10 | 148 | 0.0 | 0.0 | 0.00 | 0.00 | 0.00 | 42 | 977.8 |
| 20260504043718 | 10 | 147 | 0.0 | 0.0 | 0.00 | 0.00 | 0.00 | 45 | 977.8 |
| 20260504042718 | 10 | 147 | 0.0 | 0.0 | 0.00 | 0.00 | 0.00 | 44 | 977.9 |
| 20260504042218 | 10 | 147 | 0.0 | 0.0 | 0.00 | 0.00 | 0.00 | 45 | 977.9 |
| 20260504041718 | 10 | 147 | 0.0 | 0.0 | 0.00 | 0.00 | 0.00 | 44 | 977.9 |
| 20260504041218 | 11 | 146 | 0.0 | 0.0 | 0.00 | 0.00 | 0.00 | 41 | 978.0 |
| 20260504040718 | 11 | 146 | 0.0 | 0.0 | 0.00 | 0.00 | 0.00 | 40 | 978.0 |
| 20260504040218 | 11 | 185 | 0.0 | 0.0 | 0.00 | 0.00 | 0.00 | 40 | 978.1 |
| 20260504035717 | 11 | 185 | 0.0 | 0.0 | 0.00 | 0.00 | 0.00 | 40 | 978.1 |
| 20260504035216 | 11 | 185 | 0.0 | 0.0 | 0.00 | 0.00 | 0.00 | 39 | 978.2 |
| 20260504034716 | 12 | 185 | 0.0 | 0.0 | 0.00 | 0.00 | 0.00 | 38 | 978.1 |
| 20260504034216 | 12 | 185 | 0.0 | 0.0 | 0.00 | 0.00 | 0.00 | 37 | 978.2 |
| 20260504033716 | 12 | 185 | 0.0 | 0.0 | 0.00 | 0.00 | 0.00 | 37 | 978.2 |
| 20260504033220 | 12 | 185 | 0.0 | 0.0 | 0.00 | 0.00 | 0.00 | 36 | 978.1 |
| 20260504033216 | 12 | 185 | 0.0 | 0.0 | 0.00 | 0.00 | 0.00 | 38 | 978.1 |
| 20260504032216 | 12 | 185 | 0.0 | 0.0 | 0.00 | 0.00 | 0.00 | 36 | 978.1 |
| 20260504031716 | 12 | 185 | 0.0 | 0.0 | 0.00 | 0.00 | 0.00 | 37 | 978.0 |
| 20260504031219 | 13 | 171 | 0.0 | 1.6 | 0.00 | 0.00 | 0.00 | 37 | 977.9 |
| 20260504031215 | 12 | 185 | 0.0 | 0.0 | 0.00 | 0.00 | 0.00 | 38 | 977.9 |
| 20260504030714 | 12 | 185 | 0.0 | 1.6 | 0.00 | 0.00 | 0.00 | 37 | 977.9 |
| 20260504025714 | 13 | 140 | 0.0 | 3.2 | 0.00 | 0.00 | 0.00 | 36 | 978.0 |
| 20260504025212 | 13 | 153 | 0.0 | 3.2 | 0.00 | 0.00 | 0.00 | 35 | 978.0 |
| 20260504024712 | 14 | 190 | 0.0 | 0.0 | 0.00 | 0.00 | 0.00 | 33 | 977.9 |
| 20260504024212 | 14 | 333 | 0.0 | 0.0 | 0.00 | 0.00 | 0.00 | 31 | 977.9 |
| 20260504023712 | 14 | 333 | 0.0 | 0.0 | 0.00 | 0.00 | 0.00 | 30 | 977.9 |
| 20260504023212 | 15 | 333 | 0.0 | 0.0 | 0.00 | 0.00 | 0.00 | 30 | 978.0 |
| 20260504022710 | 15 | 333 | 0.0 | 1.6 | 0.00 | 0.00 | 0.00 | 29 | 977.9 |
| 20260504022216 | 15 | 327 | 0.0 | 3.2 | 0.00 | 0.00 | 0.00 | 29 | 977.9 |
| 20260504022210 | 15 | 302 | 0.0 | 3.2 | 0.00 | 0.00 | 0.00 | 30 | 977.9 |
| 20260504021215 | 15 | 328 | 1.6 | 6.4 | 0.00 | 0.00 | 0.00 | 29 | 977.6 |
| 20260504021211 | 15 | 311 | 1.6 | 6.4 | 0.00 | 0.00 | 0.00 | 29 | 977.8 |
| 20260504020214 | 15 | 344 | 1.6 | 11.3 | 0.00 | 0.00 | 0.00 | 27 | 977.5 |
| 20260504020210 | 15 | 330 | 1.6 | 6.4 | 0.00 | 0.00 | 0.00 | 28 | 977.6 |
| 20260504015210 | 16 | 41 | 1.6 | 12.9 | 0.00 | 0.00 | 0.00 | 27 | 977.5 |
| 20260504014713 | 16 | 355 | 0.0 | 12.9 | 0.00 | 0.00 | 0.00 | 26 | 977.5 |
| 20260504014708 | 16 | 345 | 1.6 | 4.8 | 0.00 | 0.00 | 0.00 | 25 | 977.4 |
| 20260504013708 | 16 | 316 | 1.6 | 8.0 | 0.00 | 0.00 | 0.00 | 25 | 977.4 |
| 20260504013208 | 16 | 39 | 3.2 | 8.0 | 0.00 | 0.00 | 0.00 | 25 | 977.3 |
| 20260504012713 | 16 | 338 | 8.0 | 16.1 | 0.00 | 0.00 | 0.00 | 25 | 977.3 |
| 20260504012708 | 16 | 15 | 4.8 | 20.9 | 0.00 | 0.00 | 0.00 | 25 | 977.3 |
| 20260504012208 | 16 | 31 | 6.4 | 20.9 | 0.00 | 0.00 | 0.00 | 25 | 977.3 |
| 20260504011209 | 16 | 341 | 6.4 | 17.7 | 0.00 | 0.00 | 0.00 | 25 | 977.3 |
| 20260504010711 | 17 | 4 | 6.4 | 14.5 | 0.00 | 0.00 | 0.00 | 25 | 977.4 |
| 20260504010707 | 17 | 3 | 6.4 | 17.7 | 0.00 | 0.00 | 0.00 | 25 | 977.4 |
| 20260504005709 | 17 | 10 | 4.8 | 11.3 | 0.00 | 0.00 | 0.00 | 24 | 977.4 |
| 20260504005206 | 17 | 327 | 6.4 | 16.1 | 0.00 | 0.00 | 0.00 | 24 | 977.4 |
| 20260504004711 | 17 | 8 | 6.4 | 17.7 | 0.00 | 0.00 | 0.00 | 21 | 977.2 |
| 20260504004706 | 17 | 356 | 6.4 | 16.1 | 0.00 | 0.00 | 0.00 | 22 | 977.3 |
| 20260504004311 | 17 | 3 | 6.4 | 17.7 | 0.00 | 0.00 | 0.00 | 20 | 977.0 |
| 20260504003206 | 18 | 349 | 4.8 | 9.7 | 0.00 | 0.00 | 0.00 | 21 | 977.0 |
| 20260504002710 | 18 | 348 | 4.8 | 12.9 | 0.00 | 0.00 | 0.00 | 19 | 977.0 |
| 20260504002706 | 18 | 330 | 4.8 | 12.9 | 0.00 | 0.00 | 0.00 | 20 | 977.0 |
| 20260504001706 | 18 | 8 | 3.2 | 9.7 | 0.00 | 0.00 | 0.00 | 18 | 977.0 |
| 20260504001206 | 18 | 326 | 3.2 | 9.7 | 0.00 | 0.00 | 0.00 | 18 | 977.0 |
| 20260504000709 | 18 | 324 | 4.8 | 16.1 | 0.00 | 0.00 | 0.00 | 18 | 976.9 |
| 20260504000705 | 18 | 356 | 3.2 | 16.1 | 0.00 | 0.00 | 0.00 | 18 | 977.0 |
| 20260503235705 | 19 | 332 | 3.2 | 9.7 | 0.00 | 0.00 | 0.00 | 18 | 977.0 |
| 20260503235205 | 19 | 9 | 4.8 | 12.9 | 0.00 | 0.00 | 0.00 | 18 | 977.0 |
| 20260503234706 | 19 | 336 | 6.4 | 12.9 | 0.00 | 0.00 | 0.00 | 18 | 977.0 |
| 20260503234208 | 19 | 7 | 6.4 | 14.5 | 0.00 | 0.00 | 0.00 | 19 | 977.2 |
| 20260503234203 | 19 | 5 | 4.8 | 12.9 | 0.00 | 0.00 | 0.00 | 17 | 977.2 |
| 20260503233204 | 19 | 6 | 4.8 | 14.5 | 0.00 | 0.00 | 0.00 | 17 | 977.2 |
| 20260503232704 | 20 | 328 | 1.6 | 11.3 | 0.00 | 0.00 | 0.00 | 17 | 977.0 |
| 20260503232202 | 20 | 322 | 1.6 | 8.0 | 0.00 | 0.00 | 0.00 | 17 | 977.2 |
| 20260503231704 | 20 | 326 | 4.8 | 12.9 | 0.00 | 0.00 | 0.00 | 16 | 977.2 |
| 20260503231700 | 20 | 332 | 4.8 | 12.9 | 0.00 | 0.00 | 0.00 | 17 | 977.2 |
| 20260503230659 | 20 | 353 | 3.2 | 12.9 | 0.00 | 0.00 | 0.00 | 17 | 977.2 |
| 20260503230159 | 21 | 353 | 1.6 | 9.7 | 0.00 | 0.00 | 0.00 | 16 | 977.0 |
| 20260503225700 | 21 | 131 | 1.6 | 9.7 | 0.00 | 0.00 | 0.00 | 16 | 977.0 |
| 20260503225159 | 21 | 304 | 1.6 | 9.7 | 0.00 | 0.00 | 0.00 | 16 | 977.0 |
| 20260503224659 | 20 | 30 | 1.6 | 8.0 | 0.00 | 0.00 | 0.00 | 16 | 977.0 |
| 20260503224159 | 20 | 335 | 4.8 | 14.5 | 0.00 | 0.00 | 0.00 | 17 | 977.2 |
| 20260503223659 | 20 | 3 | 3.2 | 14.5 | 0.00 | 0.00 | 0.00 | 17 | 977.2 |
| 20260503223158 | 20 | 323 | 1.6 | 14.5 | 0.00 | 0.00 | 0.00 | 18 | 977.3 |
| 20260503222658 | 19 | 259 | 4.8 | 14.5 | 0.00 | 0.00 | 0.00 | 18 | 977.3 |
| 20260503222158 | 19 | 323 | 4.8 | 11.3 | 0.00 | 0.00 | 0.00 | 17 | 977.3 |
| 20260503221658 | 19 | 7 | 4.8 | 12.9 | 0.00 | 0.00 | 0.00 | 17 | 977.4 |
| 20260503221157 | 19 | 24 | 4.8 | 12.9 | 0.00 | 0.00 | 0.00 | 17 | 977.5 |
| 20260503220158 | 20 | 357 | 3.2 | 12.9 | 0.00 | 0.00 | 0.00 | 18 | 977.6 |
| 20260503215657 | 20 | 348 | 4.8 | 12.9 | 0.00 | 0.00 | 0.00 | 16 | 977.8 |
| 20260503215158 | 20 | 348 | 4.8 | 12.9 | 0.00 | 0.00 | 0.00 | 17 | 977.8 |
| 20260503214702 | 21 | 340 | 3.2 | 12.9 | 0.00 | 0.00 | 0.00 | 16 | 977.9 |
| 20260503214657 | 20 | 292 | 4.8 | 12.9 | 0.00 | 0.00 | 0.00 | 16 | 977.9 |
| 20260503213657 | 22 | 335 | 0.0 | 6.4 | 0.00 | 0.00 | 0.00 | 15 | 977.9 |
| 20260503213157 | 22 | 136 | 0.0 | 8.0 | 0.00 | 0.00 | 0.00 | 15 | 977.9 |
| 20260503212657 | 22 | 313 | 1.6 | 8.0 | 0.00 | 0.00 | 0.00 | 15 | 978.0 |
| 20260503212201 | 20 | 315 | 3.2 | 9.7 | 0.00 | 0.00 | 0.00 | 16 | 978.3 |
| 20260503212157 | 21 | 110 | 1.6 | 6.4 | 0.00 | 0.00 | 0.00 | 17 | 978.2 |
| 20260503211158 | 20 | 356 | 1.6 | 9.7 | 0.00 | 0.00 | 0.00 | 16 | 978.5 |
| 20260503210657 | 20 | 291 | 0.0 | 9.7 | 0.00 | 0.00 | 0.00 | 18 | 978.6 |
| 20260503210201 | 20 | 337 | 3.2 | 11.3 | 0.00 | 0.00 | 0.00 | 18 | 978.7 |
| 20260503210157 | 20 | 285 | 1.6 | 9.7 | 0.00 | 0.00 | 0.00 | 16 | 978.7 |
| 20260503205202 | 21 | 342 | 1.6 | 11.3 | 0.00 | 0.00 | 0.00 | 16 | 978.8 |
| 20260503205158 | 20 | 1 | 3.2 | 11.3 | 0.00 | 0.00 | 0.00 | 17 | 978.7 |
| 20260503204803 | 22 | 133 | 0.0 | 9.7 | 0.00 | 0.00 | 0.00 | 16 | 978.9 |
| 20260503204157 | 22 | 162 | 1.6 | 9.7 | 0.00 | 0.00 | 0.00 | 14 | 979.1 |
| 20260503203155 | 22 | 133 | 0.0 | 8.0 | 0.00 | 0.00 | 0.00 | 15 | 979.1 |
| 20260503202655 | 22 | 227 | 0.0 | 8.0 | 0.00 | 0.00 | 0.00 | 14 | 979.2 |
| 20260503202158 | 21 | 353 | 0.0 | 4.8 | 0.00 | 0.00 | 0.00 | 16 | 979.3 |
| 20260503202154 | 22 | 169 | 0.0 | 3.2 | 0.00 | 0.00 | 0.00 | 17 | 979.2 |
| 20260503201158 | 20 | 347 | 4.8 | 17.7 | 0.00 | 0.00 | 0.00 | 16 | 979.4 |
| 20260503201153 | 20 | 271 | 3.2 | 12.9 | 0.00 | 0.00 | 0.00 | 17 | 979.4 |
| 20260503200759 | 20 | 324 | 1.6 | 17.7 | 0.00 | 0.00 | 0.00 | 16 | 979.4 |
| 20260503200259 | 20 | 287 | 0.0 | 3.2 | 0.00 | 0.00 | 0.00 | 15 | 979.4 |
| 20260503195151 | 21 | 313 | 0.0 | 4.8 | 0.00 | 0.00 | 0.00 | 16 | 979.5 |
| 20260503194651 | 21 | 326 | 3.2 | 14.5 | 0.00 | 0.00 | 0.00 | 15 | 979.5 |
| 20260503194152 | 21 | 110 | 3.2 | 14.5 | 0.00 | 0.00 | 0.00 | 16 | 979.6 |
| 20260503193650 | 21 | 26 | 1.6 | 8.0 | 0.00 | 0.00 | 0.00 | 16 | 979.6 |
| 20260503193149 | 21 | 357 | 3.2 | 11.3 | 0.00 | 0.00 | 0.00 | 16 | 979.6 |
| 20260503192649 | 20 | 25 | 3.2 | 11.3 | 0.00 | 0.00 | 0.00 | 17 | 979.9 |
| 20260503192149 | 19 | 12 | 3.2 | 12.9 | 0.00 | 0.00 | 0.00 | 16 | 980.0 |
| 20260503191649 | 19 | 327 | 3.2 | 12.9 | 0.00 | 0.00 | 0.00 | 16 | 980.1 |
| 20260503191149 | 19 | 345 | 4.8 | 17.7 | 0.00 | 0.00 | 0.00 | 17 | 980.2 |
| 20260503190649 | 19 | 15 | 4.8 | 17.7 | 0.00 | 0.00 | 0.00 | 16 | 980.2 |
| 20260503190148 | 20 | 297 | 3.2 | 11.3 | 0.00 | 0.00 | 0.00 | 18 | 980.4 |
| 20260503185649 | 20 | 313 | 4.8 | 19.3 | 0.00 | 0.00 | 0.00 | 19 | 980.5 |
| 20260503185148 | 19 | 298 | 4.8 | 19.3 | 0.00 | 0.00 | 0.00 | 16 | 980.5 |
| 20260503184647 | 19 | 139 | 4.8 | 12.9 | 0.00 | 0.00 | 0.00 | 18 | 980.5 |
| 20260503184147 | 19 | 307 | 3.2 | 12.9 | 0.00 | 0.00 | 0.00 | 18 | 980.7 |
| 20260503183647 | 19 | 282 | 4.8 | 12.9 | 0.00 | 0.00 | 0.00 | 17 | 980.8 |
| 20260503182645 | 18 | 358 | 4.8 | 14.5 | 0.00 | 0.00 | 0.00 | 20 | 980.9 |
| 20260503182145 | 18 | 316 | 4.8 | 16.1 | 0.00 | 0.00 | 0.00 | 19 | 980.9 |
| 20260503181645 | 18 | 321 | 3.2 | 16.1 | 0.00 | 0.00 | 0.00 | 19 | 981.2 |
| 20260503181145 | 18 | 304 | 3.2 | 16.1 | 0.00 | 0.00 | 0.00 | 19 | 981.3 |
| 20260503180645 | 18 | 214 | 4.8 | 17.7 | 0.00 | 0.00 | 0.00 | 20 | 981.2 |
| 20260503180145 | 18 | 306 | 4.8 | 17.7 | 0.00 | 0.00 | 0.00 | 20 | 981.4 |
| 20260503175645 | 18 | 198 | 3.2 | 14.5 | 0.00 | 0.00 | 0.00 | 19 | 981.5 |
| 20260503175145 | 18 | 352 | 4.8 | 17.7 | 0.00 | 0.00 | 0.00 | 20 | 981.5 |
| 20260503174645 | 18 | 333 | 4.8 | 17.7 | 0.00 | 0.00 | 0.00 | 21 | 981.7 |
| 20260503174145 | 18 | 341 | 6.4 | 17.7 | 0.00 | 0.00 | 0.00 | 20 | 981.7 |
| 20260503173643 | 18 | 163 | 6.4 | 17.7 | 0.00 | 0.00 | 0.00 | 21 | 981.8 |
| 20260503173147 | 17 | 355 | 4.8 | 16.1 | 0.00 | 0.00 | 0.00 | 23 | 982.0 |
| 20260503173143 | 17 | 155 | 6.4 | 17.7 | 0.00 | 0.00 | 0.00 | 21 | 981.7 |
| 20260503172143 | 17 | 228 | 4.8 | 14.5 | 0.00 | 0.00 | 0.00 | 21 | 982.0 |
| 20260503171643 | 17 | 201 | 3.2 | 12.9 | 0.00 | 0.00 | 0.00 | 23 | 982.1 |
| 20260503171143 | 17 | 316 | 3.2 | 12.9 | 0.00 | 0.00 | 0.00 | 21 | 982.1 |
| 20260503170643 | 17 | 212 | 3.2 | 12.9 | 0.00 | 0.00 | 0.00 | 21 | 982.1 |
| 20260503170144 | 17 | 271 | 3.2 | 11.3 | 0.00 | 0.00 | 0.00 | 21 | 982.4 |